sat.trackr.live / text

‹ back to catalog

STARLINK-4100

NORAD 53144 · 2022-083N

PAYLOAD ACTIVE UNKNOWN

§ Identity

Operator
Country
US
Launch date
2022-07-17
Launch site
AFETR
Launch vehicle
Mass (kg)
RCS (m²)

Purposes: comms

External: N2YO · Heavens-Above · Gunter

§ Orbital elements

Epoch: 2026-05-24T19:53:18.294144Z

Period
95.44 min
Inclination
53.2124°
Eccentricity
0.0002407
Mean motion
15.08785671 rev/d
Perigee alt
538.2 km
Apogee alt
541.6 km
Semi-major
6,918.0 km
B*
6.4872e-4
RAAN
192.3277°
Arg perigee
86.6862°
Mean anomaly
273.4405°
Rev number
21,271

§ Raw data

STARLINK-41001 53144U 22083N   26144.82868396  .00010036  00000+0  64872-3 0  99982 53144  53.2124 192.3277 0002407  86.6862 273.4405 15.08785671212712

JSON: /api/v1/satellites/53144 · /tle

For live sub-satellite position, see the globe view (requires WebGL).

§ Visibility from observer

Set your observer location to see the next 7 days of passes ≥ 10°. The values pass through the URL so the page stays shareable.

No JS? Fill the form by hand. The geolocation button needs JavaScript.